Location: Andolsheim
(48.0631°N, 7.4172°E)
Time: 22:12:19
(UTC+00:00)

Daily predictions for brighter satellites

Satellite Brightness Start Highest point End
(mag) Time Altitude Azimuth Time Altitude Azimuth Time Altitude Azimuth
Cosmos 1464 Rocket 4.4 16:06:09 10° SSE 16:12:07 45° E 16:18:07 10° NNE
NOAA 6 4.4 16:09:19 10° SE 16:14:10 44° ENE 16:19:01 10° N
Cosmos 1408 Rocket 4.0 16:15:05 10° N 16:19:09 38° ENE 16:23:15 10° SE
Cosmos 1271 Rocket 2.8 16:16:07 10° S 16:19:59 67° E 16:23:57 10° NNE
NOSS 2-1 (E) 2.8 16:17:06 10° SSW 16:20:21 72° SE 16:23:41 10° NE
CZ-4B R/B 2.9 16:18:41 10° SSE 16:22:52 77° ENE 16:26:51 10° N
Cosmos 1697 Rocket 3.6 16:18:19 10° N 16:22:59 26° NE 16:27:39 10° ESE
GEOS 3 Rocket 4.4 16:18:45 10° E 16:23:19 31° NNE 16:27:51 10° NNW
Cosmos 1980 Rocket 3.6 16:20:42 10° N 16:24:28 18° NE 16:28:13 10° E
Lacrosse 5 3.0 16:21:48 10° WNW 16:26:45 49° SW 16:31:39 10° SSE
Nadezhda 4 Rocket 4.2 16:20:46 10° N 16:26:53 49° ENE 16:32:59 10° SSE
deb Kosmos-1763 4.4 16:24:04 10° S 16:27:15 38° ESE 16:30:29 10° NE
USA 267 3.4 16:22:08 10° NE 16:28:42 79° NNW 16:35:14 10° WSW
USA 305 3.0 16:25:06 10° WSW 16:29:19 76° NNW 16:33:22 11° ENE
Cosmos 1656 3.9 16:24:16 10° NNW 16:29:35 47° NE 16:34:57 10° SE
CZ-2C R/B 3.0 16:26:04 10° SSE 16:31:06 86° WSW 16:35:56 10° NNW
CZ-4C R/B 4.1 16:27:19 10° N 16:31:15 52° WNW 16:34:57 10° SSW
CZ-4B DEB 4.4 16:28:09 10° SE 16:33:28 51° ENE 16:38:48 10° N
Cosmos 1340 Rocket 3.4 16:32:21 10° N 16:36:08 36° ENE 16:39:54 10° SE
Cosmos 1891 Rocket 4.5 16:30:10 10° S 16:36:19 76° E 16:42:40 10° NNE
USA 229 DEB 4.1 16:30:47 10° NW 16:37:45 49° NE 16:45:12 10° ESE
USA 229 4.1 16:30:53 10° NW 16:37:51 49° NE 16:45:16 10° ESE
Cosmos 990 Rocket 4.3 16:36:08 10° NNW 16:41:05 42° ENE 16:45:59 10° SE
AQUARIUS 4.1 16:37:50 10° SSE 16:42:15 62° ENE 16:46:42 10° N
Lacrosse 5 rocket 2.8 16:39:37 10° WNW 16:42:39 22° N 16:45:18 12° NE
ATLAS 2AS CENTAUR R/B 4.0 16:38:02 10° W 16:45:11 37° NNW 16:52:04 10° NE
Cosmos 1513 Rocket 4.4 16:39:17 10° S 16:45:21 84° E 16:51:35 10° N
USA 276 2.1 16:42:23 10° WNW 16:45:30 66° N 16:47:51 16° E
ATLAS CENTAUR R/B 3.9 16:37:13 10° SSW 16:47:12 39° SE 16:50:57 15° ENE
Cosmos 1933 4.4 16:45:23 10° SE 16:48:40 24° E 16:51:18 13° NE
PAYLOAD B 4.4 16:43:39 10° SE 16:49:05 54° ENE 16:54:33 10° N
SJ 16-02 2.0 16:45:39 10° NNW 16:49:57 59° WSW 16:54:15 10° S
Cosmos 1500 Rocket 3.7 16:49:40 10° N 16:54:03 51° ENE 16:58:21 10° SSE
Cosmos 2034 Rocket 4.0 16:49:24 10° S 16:55:29 65° E 17:01:35 10° NNE
CORIOLIS 4.2 16:54:32 10° SSE 16:59:56 89° W 17:05:24 10° NNW
USA 306 3.3 16:57:03 10° W 17:01:15 56° NNW 17:04:00 20° NE
NOSS 3-1 (A) 4.0 16:54:04 10° NW 17:01:20 66° NE 17:09:54 10° SE
CZ-2D R/B 3.2 16:57:40 10° SSE 17:01:26 59° ENE 17:05:14 10° N
NOSS 2-1 (C) 4.0 16:58:32 10° WSW 17:01:35 38° NW 17:04:09 14° NNE
USA 234 4.2 16:56:52 10° SSE 17:03:11 51° SW 17:09:32 10° WNW
Meteor 1-20 Rocket 4.3 16:58:26 10° N 17:04:12 61° ENE 17:09:59 10° SSE
NOSS 3-1 (C) 4.1 16:57:06 10° NW 17:04:31 88° SW 17:13:16 10° SE
Cosmos 1805 Rocket 3.9 17:00:46 10° N 17:04:53 39° ENE 17:08:56 10° SE
Cosmos 1842 Rocket 3.6 17:02:46 10° S 17:07:13 86° WNW 17:11:43 10° N
Cosmos 1833 Rocket 3.3 17:03:34 10° S 17:08:38 36° ESE 17:11:51 20° NE
Cosmos 2360 4.4 17:04:17 10° NNW 17:09:51 47° NE 17:15:21 10° SE
NOSS 2-1 (D) 4.3 17:07:59 10° WSW 17:10:57 32° NW 17:13:12 15° NNE
PSLV R/B 3.6 17:09:41 10° SSE 17:13:21 85° WSW 17:17:05 10° NNW
CZ-4B R/B 3.2 17:08:24 10° SSE 17:13:45 60° ENE 17:19:03 10° N
Sich 1 3.3 17:12:02 10° N 17:16:05 40° ENE 17:20:08 10° SE
Cosmos 1939 Rocket 4.1 17:13:05 10° S 17:17:03 45° W 17:21:01 10° NNW
USA 307 3.4 17:13:33 10° W 17:17:45 51° NNW 17:19:51 26° NE
SMAP 3.9 17:13:16 10° S 17:17:48 53° W 17:22:22 10° NNW
ARGOS 3.3 17:12:50 10° SE 17:18:04 51° ENE 17:23:18 10° N
ERBS 2.5 17:15:07 10° WSW 17:18:16 57° NNW 17:19:27 33° NNE
Cosmos 1606 4.0 17:16:08 10° SSW 17:19:41 40° WNW 17:23:17 10° N
H-2A R/B 1.9 17:14:27 10° SSE 17:19:42 82° ENE 17:24:49 10° NNW
Cosmos 1898 Rocket 3.4 17:14:38 10° NNW 17:19:54 64° ENE 17:25:04 10° SE
MOS 1-B Rocket 4.0 17:15:20 10° NNE 17:21:00 61° ESE 17:27:17 10° S
Cosmos 1634 Rocket 4.2 17:15:01 10° SSE 17:21:04 50° E 17:27:09 10° NNE
SL-24 R/B - RUBIN 2 4.4 17:18:24 10° NNW 17:22:32 30° NE 17:23:12 29° NE
COSMOS 2455 3.8 17:20:07 10° SSE 17:24:59 26° ESE 17:25:52 25° E
ATLAS CENTAUR R/B 3.2 17:22:43 10° W 17:26:20 26° NW 17:29:27 14° NNE
Cosmos 2221 3.5 17:22:50 10° SSW 17:26:55 46° WNW 17:31:05 10° N
Cosmos 468 Rocket 4.0 17:21:56 10° S 17:26:59 61° ESE 17:30:21 21° NE
Landsat 5 3.9 17:27:18 35° ENE 17:27:55 37° E 17:31:44 10° SSE
Cosmos 44 3.7 17:23:39 10° NW 17:28:25 61° WSW 17:32:51 10° SSE
CZ-4 R/B 4.4 17:25:36 10° SSE 17:29:38 55° ENE 17:33:41 10° N
COSMO-SKYMED 1 2.6 17:29:13 22° NNE 17:31:53 57° E 17:36:09 10° S
Cosmos 2026 Rocket 3.8 17:28:14 10° N 17:34:27 75° E 17:40:32 10° SSE
Cosmos 540 Rocket 3.7 17:30:53 10° S 17:35:42 44° ESE 17:37:03 36° ENE
SL-08 RB Rocket 3.9 17:31:32 10° SE 17:36:01 49° ENE 17:40:30 10° N
deb Chang Zheng 4 3.4 17:32:06 10° SSE 17:36:24 86° ENE 17:40:45 10° NNW
Cosmos 2195 Rocket 4.4 17:30:24 10° N 17:36:34 89° E 17:42:45 10° S
CZ-2C R/B 2.5 17:32:54 10° NNE 17:38:08 66° ESE 17:43:16 10° S
SJ-11-01 4.2 17:35:11 10° SSE 17:39:55 77° ENE 17:44:41 10° N
USA 308 3.6 17:36:00 10° W 17:40:05 44° NNW 17:41:12 35° NNE
Cosmos 1500 3.2 17:36:46 10° N 17:44:46 - SSE 17:40:06 54° NE
Okean O Rocket 1.5 17:36:13 10° SSE 17:40:40 78° ENE 17:45:08 10° NNW
Cosmos 2360 Rocket 4.2 17:40:05 10° N 17:41:19 12° NNE 17:41:19 12° NNE
Helios 1B 4.4 17:40:04 26° NNE 17:42:30 73° ESE 17:46:49 10° S
Meteor 1-25 Rocket 4.4 17:38:01 10° NNW 17:43:35 74° W 17:49:07 10° S
ISS -3.1 17:41:53 10° WNW 17:44:55 45° N 17:44:55 45° N
Meteor 2-21 4.3 17:39:50 10° N 17:45:59 82° E 17:52:02 10° SSE
CZ-4C R/B 3.2 17:40:13 10° NW 17:46:51 47° NE 17:49:48 34° E
YAOGAN 1 3.7 17:50:22 29° NNE 17:50:22 29° NNE 17:52:45 10° N
Meteor 1-5 Rocket 4.3 17:49:14 10° N 17:55:08 57° ENE 18:00:58 10° SSE
CZ-4 R/B 3.5 18:00:22 16° N 18:00:22 16° N 18:01:13 10° N
Cosmos 2084 3.6 17:53:50 10° NW 17:58:07 72° SW 17:59:42 38° SSE
Cosmos 2369 3.6 17:53:31 10° NNW 17:59:17 76° ENE 18:02:24 28° SE
Cosmos 2322 Rocket 3.9 17:55:15 10° N 17:57:35 17° NNE 17:57:35 17° NNE
GEOS 3 Rocket 3.7 17:56:54 17° SSE 18:01:02 74° SW 18:06:16 10° NW
NOAA 15 4.5 17:56:06 10° SSE 18:01:20 66° ENE 18:06:36 10° N
Cosmos 1782 2.8 17:58:17 10° S 18:02:17 83° W 18:02:36 74° NNW
Cosmos 1697 Rocket 3.0 18:01:52 10° NNW 18:07:27 67° WSW 18:13:00 10° SSE
Cosmos 1937 Rocket 3.7 18:02:25 10° NNW 18:07:44 74° WSW 18:13:01 10° SSE
Cosmos 1763 Rocket 3.9 18:03:40 10° SW 18:08:39 60° WNW 18:11:17 28° N
NOSS 2-2 (C) 4.2 18:04:24 10° NW 18:09:25 73° NE 18:10:58 51° ESE
Cosmos 1980 Rocket 2.0 18:03:50 10° NNW 18:09:32 72° ENE 18:10:40 56° ESE
USA 305 3.9 18:05:39 10° WNW 18:09:22 37° NNW 18:09:22 37° NNW
Cosmos 841 Rocket 3.3 18:05:06 10° S 18:10:09 67° ESE 18:10:09 67° ESE
USA 267 3.9 18:08:54 32° NE 18:11:18 44° N 18:17:25 10° W
Cosmos 1666 Rocket 4.4 18:08:37 10° N 18:11:32 40° N 18:11:32 40° N
Cosmos 2333 Rocket 4.5 18:11:05 10° N 18:11:35 11° N 18:11:35 11° N
SL-16 R/B 3.7 18:08:54 10° NNW 18:11:40 22° NNE 18:11:40 22° NNE
Spot 2 4.4 18:14:27 17° SSE 18:18:26 88° WSW 18:23:37 10° NNW
Cosmos 2082 Rocket 2.3 18:13:42 10° S 18:18:34 55° SE 18:18:34 55° SE
SKYMED 2 4.5 18:17:49 26° N 18:19:55 47° WNW 18:24:05 10° SW
Lacrosse 5 rocket 3.3 18:19:14 10° NW 18:20:53 20° NNW 18:20:53 20° NNW
COSMOS 2406 3.2 18:19:02 10° SSW 18:24:48 81° WNW 18:26:02 57° NNE
Cosmos 2278 3.7 18:19:38 10° NNW 18:24:47 65° NNE 18:24:47 65° NNE
USA 229 4.5 18:21:54 10° NW 18:29:03 56° WSW 18:36:36 10° SSE
Cosmos 372 Rocket 4.2 18:29:27 10° NNW 18:34:39 68° WSW 18:35:15 62° SSW
ATLAS 2AS CENTAUR R/B 4.3 18:32:23 10° NW 18:38:23 24° N 18:39:54 22° NNE
Meteor 2-8 Rocket 4.3 18:32:41 10° S 18:38:41 84° SE 18:38:41 84° SE
Cosmos 1833 Rocket 3.7 18:47:10 10° SW 18:52:29 42° NW 18:53:35 38° NNW
ATLAS CENTAUR R/B 4.4 19:05:21 10° NNW 19:05:34 10° NNW 19:05:34 10° NNW
COSMOS 2455 3.5 19:04:28 10° SW 19:09:04 50° WSW 19:09:04 50° WSW
ATLAS CENTAUR R/B 4.2 19:12:24 10° W 19:16:49 29° WNW 19:16:49 29° WNW
CZ-4C R/B 3.4 19:28:39 10° NW 19:35:02 58° W 19:35:02 58° W
Cosmos 1980 Rocket 4.4 19:48:56 10° NW 19:52:30 20° W 19:52:30 20° W
